Regional Weather Roundup
Issued by NWS

Home | Current Version | Previous Version | Text Only | Print | Product List | Glossary On
Versions: 1 2 3 4 5 6 7 8 9 10 11 12 13 14 15 16 17 18 19 20 21 22 23 24 25 26 27 28 29 30 31 32 33 34 35 36 37 38 39 40 41 42 43 44 45 46 47 48 49 50
000
ASHW40 PHFO 210443
RWRHI

WEATHER ROUNDUP FOR HAWAII
NATIONAL WEATHER SERVICE HONOLULU HI
600 PM HST FRI APR 20 2018

THIS IS AN AUTOMATED REPORT THAT HAS NOT BEEN QUALITY CONTROLLED.

NOTE..."FAIR" INDICATES FEW OR NO CLOUDS BELOW 12,000 FEET WITH NO
SIGNIFICANT WEATHER AND/OR OBSTRUCTIONS TO VISIBILITY.

* - THESE SITES REPORT LIMITED FIELDS
# - BUOY DATA PROVIDED BY PACIFIC ISLANDS OCEAN OBSERVING SYSTEM.

HIZ001>004-210500-
KAUAI-NIIHAU-

CITY           SKY/WX    TMP DP  RH WIND       PRES   REMARKS
LIHUE APT      PTSUNNY   76  71  85 NE17      30.08R
PORT ALLEN*      N/A     77 N/A N/A NE22G30     N/A
POIPU*           N/A     77 N/A N/A NE9G17      N/A
PRINCEVILLE*     N/A     73 N/A N/A E10G16      N/A
KOKOLE POINT*  NOT AVBL
MOLOAA DAIRY*    N/A     73  70  88 E3G12       N/A
WAIMEA HTS*      N/A     73  63  68 E10G21      N/A
PUU OPAE*        N/A    N/A N/A N/A S6          N/A
PUU LUA*       NOT AVBL
MAKAHA RIDGE*    N/A     73  64  73 SW1         N/A
$$

HIZ005>011-210500-
OAHU-

CITY           SKY/WX    TMP DP  RH WIND       PRES   REMARKS
HONOLULU       CLOUDY    80  65  59 NE18      30.04S
KALAELOA       MOSUNNY   80  65  59 NE10G18   30.05R
KANEOHE MCB    PTSUNNY   77  70  79 E10G20    30.04R
WHEELER FIELD  PTSUNNY   74  64  70 E8        30.06R
BELLOWS*         N/A    N/A N/A N/A NE18        N/A
KAHUKU*          N/A    N/A N/A N/A E9G16       N/A
WHEELER*         N/A    N/A N/A N/A E8G14       N/A
WAIANAE HARBOR   N/A    N/A N/A N/A E9G17       N/A
DILLINGHAM*    NOT AVBL
KAHUKU TRN*      N/A     73  68  83 W7G21       N/A
KAWAILOA*        N/A     72  63  73 E13G21      N/A
KII*             N/A     77  70  78 E15G23      N/A
MAKUA RANGE*     N/A     79  61  53 E9G21       N/A
OAHU FOREST NW   N/A     68  61  77 E13G29      N/A
SCHOFIELD BRK*   N/A     73  63  68 W7          N/A
SCHOFIELD S*   NOT AVBL
WAIANAE VLY*     N/A     73  63  68 N2          N/A
KUAOKALA*        N/A     72  64  78 NE15G25     N/A
HONOULIUULI*   NOT AVBL
MOKUOLOE IS*   NOT AVBL
PALEHUA*         N/A     64  61  88 NE10G21     N/A
WAIAWA PHB*    NOT AVBL
$$

HIZ012>013-210500-
MOLOKAI-

CITY           SKY/WX    TMP DP  RH WIND       PRES   REMARKS
MOLOKAI AIRPT  CLOUDY    76  67  73 NE14G21   30.06R
KALAUPAPA      NOT AVBL
MAKAPULAPAI*     N/A     75  66  73 E21G29      N/A
MOLOKAI 1*     NOT AVBL
PUU ALII*        N/A     59  58  96 N2G12       N/A
$$

HIZ016-210500-
KAHOOLAWE-

CITY           SKY/WX    TMP DP  RH WIND       PRES   REMARKS
KAHOOLAWE*     NOT AVBL
HAKIOAWA*        N/A     73  65  77 MISG      30.47R
HONOKANAIA*    NOT AVBL
KANELOA*         N/A     75  66  73 NE17G36   30.08R
KEALIALALO*    NOT AVBL
LUA MAKIKA*    NOT AVBL
$$

HIZ014>015-210500-
LANAI-

CITY           SKY/WX    TMP DP  RH WIND       PRES   REMARKS
LANAI CITY     FAIR      70  64  83 NE15G21   30.08S
LANAI 1*       NOT AVBL
$$

HIZ017>028-210500-
MAUI-

CITY           SKY/WX    TMP DP  RH WIND       PRES   REMARKS
KAHULUI        MOCLDY    77  68  73 NE23G32   30.05R
KAPALUA-W MAUI PTSUNNY   75  68  78 NE9G24    30.04R
HANA AIRPORT   NOT AVBL
HANA*            N/A     77 N/A N/A E6          N/A
HALEAKALA SUMM   N/A     39  30  70 NE13        N/A
MAALAEA BAY*     N/A     77 N/A N/A N21G33      N/A
HALEAKALA*     NOT AVBL
KAUPO GAP*     NOT AVBL
KULA 1*          N/A     55  53  94 NW3         N/A
$$

HIZ023>026-210500-
BIG ISLAND OF HAWAII COAST AND LOWER SLOPES-

CITY           SKY/WX    TMP DP  RH WIND       PRES   REMARKS
KAILUA KONA    CLOUDY    79  68  69 S8        29.98R
HILO             N/A     77  68  73 NE6       30.06R
HONOKAA*         N/A     70 N/A N/A VRB1        N/A
KAWAIHAE MWT*    N/A     81 N/A N/A W7          N/A
KAWAIHAE*        N/A     79 N/A N/A W7        29.98S
SOUTH POINT*     N/A     72 N/A N/A N20G30      N/A
UPOLU AIRPORT* NOT AVBL
KAMUELA*       PTCLDY    64  61  88 NE25      30.12R
HAKALAU*         N/A     54  53  98 W1          N/A
KALOKO-HONOKO*   N/A     79  70  73 S3G9      29.99R
PALI 2*          N/A     66  57  72 N20G33      N/A
KEALAKOMO*       N/A     79  64  61 NE18G26     N/A
KAUPULEHU*       N/A     73  63  68 NE13G23     N/A
KAPAPALA*        N/A     72  65  80 W3G15       N/A
LOWER KAHUKU*    N/A     63  63 100 VRB3G14     N/A
PUHE CS*         N/A     79  68  69 W5          N/A
PUHO CS*         N/A     78  71  78 SW1         N/A
PTA KEAMUKU*     N/A     63  59  88 NE15G22     N/A
WAIKOLOA*        N/A     73  63  68 NE13G29     N/A
$$

HIZ027>028-210500-
BIG ISLAND OF HAWAII INTERIOR AND SUMMMITS-

CITY           SKY/WX    TMP DP  RH WIND       PRES   REMARKS
BRADSHAW FIELD CLOUDY    55  49  78 SE7       30.33R
MK VISITOR CEN   N/A     46  39  76 VRB2        N/A
MAUNA KEA*       N/A     30  30 100 CALM        N/A
MAUNA LOA*       N/A     39  34  81 MISG        N/A
MAUNA LOA 1*   NOT AVBL
PTA KIPUKA*      N/A     61  48  63 W13G24      N/A
PTA RANGE 17*    N/A     64  54  68 W12G21      N/A
PTA WEST*        N/A     66  52  59 NE10G21     N/A
NENE CABIN*      N/A     54  50  87 E5G10       N/A
AHUMOA*          N/A     53  52  95 SE3         N/A
PTA PORTABLE*  NOT AVBL
PUU MALI*        N/A     55  37  50 E13G25      N/A
$$

HIC003-210500-
NORTHWEST ISLANDS-

CITY           SKY/WX    TMP DP  RH WIND       PRES   REMARKS
MIDWAY ISLAND  PTSUNNY   72  68  88 E7        30.16S
MIDWAY NOS*      N/A     72 N/A N/A MISG      30.16R
FRENCH FRIGATE NOT AVBL
$$

PHZ110>124-180-210500-
BUOY REPORTS

STATION/POSITION TIME  TEMP    WIND        PRES    WAVE   SWELL
                       AIR SEA DIR/SP/G            HT/PER HT/DIR
                 (UTC) (F)     (DEG/KT/KT) (MB)    (FT/S) (FT/D)
BUOY 51001       0420   81 81   70/ 17/ 23 1009.8
BUOY 51101       0350   73 74   60/ 12/ 16 1019.9R   6/11   5
BUOY 51100       NOT AVBL
BUOY 51002       0420   79 78   70/ 19/ 23 1015.1
BUOY 51003       0350   78 80   60/ 10/ 12 1015.6R   7/ 7   7/ 80
BUOY 51004       0420   78 79   60/ 17/ 23   N/A
WAIMEA BAY#      NOT AVBL
MOKAPU POINT#    0404      75                N/A     7/ 6   2/ 70
LANAI#           NOT AVBL
BARBERS PT 2#    NOT AVBL
PAUWELA#         0400      77                N/A     6/ 8   2/340
HILO#            0427      76                N/A     5/ 8   2/350
KANEOHE BAY#     NOT AVBL
KANEOHE BAY 2#   NOT AVBL
HANALEI#         0422      77                N/A     7/13   3/330
KAHULUI HARBOR   0412   76 76   30/ 17/ 21 1017.8
HONOLULU HARBOR  0412   78 78   70/  4/ 11 1017.1
PEARL HARBOR#    0330      77                N/A     4/ 7   2/140
KILO NALU        NOT AVBL
HILO HARBOR      0412   76 76   40/  8/ 10 1017.6
MOKUOLOE         0336   76 77   60/ 13/ 16 1017.8R
NAWILIWILI       0412   74 78   50/ 10/ 15 1018.3
WHOTS BUOY       NOT AVBL
BUOY 51028       NOT AVBL
$$

......................KEY........................................
  SKY/WX - SKY CONDITIONS/PRESENT WEATHER
  TMP    - TEMPERATURE IN FAHRENHEIT
  DWPT   - DEWPOINT IN FAHRENHEIT
  RH     - RELATIVE HUMIDITY IN PERCENT
  WIND   - DIRECTION AND SPEED /MPH FOR ISLANDS...KTS FOR BUOYS/
  PRES   - MEAN SEA LEVEL PRESSURE IN INCHES OF HG
  VSB    - VISIBILITY IN MILES
  HX     - HEAT INDEX
  WCI    - WIND CHILL INDEX
  VRB    - VARIABLE WIND DIRECTION
  N/A    - NOT AVAILABLE




USA.gov is the U.S. government's official web portal to all federal, state and local government web resources and services.